VLG9TB LEZL-GCLP

Flight info

Callsign VLG9TB
Flight time 2h 14m
Altitude 35000
Route CLANA DCT KORNO UN857 TERTO
Aircraft A320/M-SDE3FGHIRWY/LB1

Departure

Time 2026-05-08 11:30
Airport Seville Airport (LEZL)

Arrival

Time 2026-05-08 13:44
Airport Gran Canaria Airport (GCLP)
Time Latitude Longitude Altitude Speed Heading
2026-05-08 10:48 37.42186 -5.89984 94 ft 0 kts 314°
2026-05-08 11:18 37.42179 -5.89974 118 ft 3 kts 318°
2026-05-08 11:18 37.42161 -5.89957 91 ft 3 kts 332°
2026-05-08 11:18 37.42141 -5.89947 94 ft 3 kts 353°
2026-05-08 11:18 37.42119 -5.89948 93 ft 3 kts 20°
2026-05-08 11:19 37.42102 -5.89959 94 ft 1 kts 44°
2026-05-08 11:23 37.42105 -5.89955 93 ft 2 kts 44°
2026-05-08 11:23 37.42118 -5.89940 95 ft 4 kts 44°
2026-05-08 11:23 37.42140 -5.89912 94 ft 5 kts 44°
2026-05-08 11:23 37.42171 -5.89874 94 ft 7 kts 44°
2026-05-08 11:24 37.42211 -5.89826 94 ft 9 kts 44°
2026-05-08 11:24 37.42257 -5.89767 93 ft 10 kts 49°
2026-05-08 11:24 37.42240 -5.89688 94 ft 11 kts 131°
2026-05-08 11:24 37.42184 -5.89616 95 ft 12 kts 134°
2026-05-08 11:25 37.42127 -5.89543 97 ft 12 kts 134°
2026-05-08 11:25 37.42068 -5.89466 98 ft 13 kts 134°
2026-05-08 11:25 37.42003 -5.89383 99 ft 14 kts 135°
2026-05-08 11:25 37.41983 -5.89266 100 ft 15 kts 89°
2026-05-08 11:26 37.41984 -5.89135 100 ft 15 kts 90°
2026-05-08 11:26 37.41984 -5.88996 101 ft 17 kts 90°
2026-05-08 11:26 37.41985 -5.88847 102 ft 17 kts 89°
2026-05-08 11:26 37.41985 -5.88692 103 ft 18 kts 90°
2026-05-08 11:27 37.41985 -5.88527 104 ft 20 kts 90°
2026-05-08 11:27 37.41986 -5.88350 105 ft 21 kts 89°
2026-05-08 11:27 37.41986 -5.88163 106 ft 22 kts 89°
2026-05-08 11:27 37.41987 -5.87965 107 ft 23 kts 89°
2026-05-08 11:28 37.41987 -5.87756 108 ft 24 kts 90°
2026-05-08 11:28 37.41989 -5.87612 109 ft 24 kts 90°
2026-05-08 11:28 37.41921 -5.87430 114 ft 16 kts 158°
2026-05-08 11:28 37.41822 -5.87437 117 ft 8 kts 187°
2026-05-08 11:29 37.41801 -5.87480 116 ft 0 kts 269°
2026-05-08 11:29 37.41801 -5.87489 117 ft 5 kts 269°
2026-05-08 11:29 37.41796 -5.87950 110 ft 83 kts 270°
2026-05-08 11:30 37.41796 -5.88552 106 ft 119 kts 270°
2026-05-08 11:30 37.41791 -5.89770 99 ft 161 kts 269°
2026-05-08 11:30 37.41822 -5.91224 538 ft 168 kts 274°
2026-05-08 11:30 37.42049 -5.92679 1107 ft 171 kts 281°
2026-05-08 11:31 37.42327 -5.94178 1602 ft 183 kts 279°
2026-05-08 11:31 37.42621 -5.95788 2022 ft 196 kts 278°
2026-05-08 11:31 37.42914 -5.97556 2244 ft 217 kts 278°
2026-05-08 11:31 37.43228 -5.99529 2552 ft 242 kts 278°
2026-05-08 11:32 37.43567 -6.01671 3158 ft 255 kts 279°
2026-05-08 11:32 37.43878 -6.03884 3946 ft 259 kts 271°
2026-05-08 11:32 37.43471 -6.06051 4766 ft 257 kts 235°
2026-05-08 11:32 37.42137 -6.07498 5553 ft 258 kts 201°
2026-05-08 11:33 37.40362 -6.07877 6351 ft 263 kts 181°
2026-05-08 11:33 37.38528 -6.07721 7144 ft 266 kts 175°
2026-05-08 11:33 37.36677 -6.07680 7903 ft 267 kts 192°
2026-05-08 11:33 37.34862 -6.08210 8739 ft 268 kts 195°
2026-05-08 11:34 37.33050 -6.08766 9570 ft 269 kts 195°
2026-05-08 11:34 37.31223 -6.09330 10242 ft 275 kts 196°
2026-05-08 11:34 37.29286 -6.09934 10415 ft 298 kts 196°
2026-05-08 11:34 37.27202 -6.10585 10645 ft 316 kts 195°
2026-05-08 11:35 37.25042 -6.11253 11195 ft 322 kts 195°
2026-05-08 11:35 37.22852 -6.11923 11830 ft 326 kts 196°
2026-05-08 11:35 37.20641 -6.12596 12485 ft 328 kts 196°
2026-05-08 11:35 37.18413 -6.13274 13118 ft 331 kts 196°
2026-05-08 11:36 37.16168 -6.13959 13762 ft 334 kts 197°
2026-05-08 11:36 37.13902 -6.14649 14327 ft 336 kts 197°
2026-05-08 11:36 37.11622 -6.15343 14899 ft 338 kts 197°
2026-05-08 11:36 37.09330 -6.16038 15467 ft 340 kts 197°
2026-05-08 11:37 37.07023 -6.16738 15994 ft 342 kts 197°
2026-05-08 11:37 37.04710 -6.17466 16539 ft 343 kts 200°
2026-05-08 11:37 37.02523 -6.18624 17085 ft 341 kts 212°
2026-05-08 11:37 37.00583 -6.20324 17631 ft 341 kts 222°
2026-05-08 11:38 36.98798 -6.22234 18191 ft 343 kts 222°
2026-05-08 11:38 36.96977 -6.24175 18699 ft 345 kts 222°
2026-05-08 11:38 36.95143 -6.26121 19209 ft 347 kts 222°
2026-05-08 11:38 36.93300 -6.28071 19723 ft 348 kts 222°
2026-05-08 11:39 36.91447 -6.30033 20226 ft 350 kts 222°
2026-05-08 11:39 36.89589 -6.32005 20731 ft 351 kts 222°
2026-05-08 11:39 36.87720 -6.33987 21211 ft 353 kts 222°
2026-05-08 11:39 36.85841 -6.35976 21674 ft 355 kts 223°
2026-05-08 11:40 36.83954 -6.37972 22129 ft 357 kts 223°
2026-05-08 11:40 36.82056 -6.39975 22579 ft 358 kts 223°
2026-05-08 11:40 36.80148 -6.41987 22984 ft 360 kts 223°
2026-05-08 11:40 36.78228 -6.44010 23427 ft 362 kts 223°
2026-05-08 11:41 36.76296 -6.46043 23818 ft 364 kts 223°
2026-05-08 11:41 36.74356 -6.48084 24217 ft 365 kts 223°
2026-05-08 11:41 36.72414 -6.50126 24604 ft 366 kts 223°
2026-05-08 11:41 36.70467 -6.52174 24982 ft 367 kts 223°
2026-05-08 11:42 36.68516 -6.54228 25352 ft 368 kts 223°
2026-05-08 11:42 36.66560 -6.56287 25719 ft 369 kts 223°
2026-05-08 11:42 36.64597 -6.58351 26066 ft 370 kts 223°
2026-05-08 11:42 36.62624 -6.60419 26431 ft 371 kts 223°
2026-05-08 11:43 36.60644 -6.62491 26794 ft 372 kts 223°
2026-05-08 11:43 36.58661 -6.64569 27155 ft 374 kts 223°
2026-05-08 11:43 36.56669 -6.66657 27507 ft 375 kts 223°
2026-05-08 11:43 36.54670 -6.68748 27856 ft 376 kts 223°
2026-05-08 11:44 36.52665 -6.70844 28213 ft 377 kts 223°
2026-05-08 11:44 36.50657 -6.72940 28685 ft 376 kts 223°
2026-05-08 11:44 36.48658 -6.75013 29213 ft 373 kts 223°
2026-05-08 11:44 36.46667 -6.77065 29742 ft 370 kts 224°
2026-05-08 11:45 36.44687 -6.79097 30252 ft 368 kts 224°
2026-05-08 11:45 36.42723 -6.81110 30716 ft 364 kts 224°
2026-05-08 11:45 36.40780 -6.83099 31222 ft 360 kts 224°
2026-05-08 11:45 36.38861 -6.85068 31768 ft 355 kts 224°
2026-05-08 11:46 36.36971 -6.87011 32321 ft 350 kts 224°
2026-05-08 11:46 36.35107 -6.88927 32869 ft 345 kts 225°
2026-05-08 11:46 36.33271 -6.90813 33423 ft 341 kts 225°
2026-05-08 11:46 36.31458 -6.92674 33966 ft 336 kts 225°
2026-05-08 11:47 36.29691 -6.94488 34331 ft 333 kts 225°
2026-05-08 11:47 36.27913 -6.96314 34676 ft 331 kts 225°
2026-05-08 11:47 36.26141 -6.98137 34912 ft 332 kts 225°
2026-05-08 11:48 36.22543 -7.01836 34974 ft 343 kts 225°
2026-05-08 11:48 36.18830 -7.05637 34967 ft 349 kts 225°
2026-05-08 11:49 36.15075 -7.09452 34969 ft 349 kts 225°
2026-05-08 11:49 36.11327 -7.13274 34975 ft 349 kts 225°
2026-05-08 11:50 36.07576 -7.17095 34973 ft 349 kts 225°
2026-05-08 11:50 36.03821 -7.20913 34979 ft 350 kts 225°
2026-05-08 11:51 36.00066 -7.24729 34970 ft 349 kts 225°
2026-05-08 11:51 35.96312 -7.28535 34979 ft 349 kts 225°
2026-05-08 11:52 35.92555 -7.32332 34978 ft 349 kts 224°
2026-05-08 11:52 35.88802 -7.36124 34981 ft 349 kts 224°
2026-05-08 11:53 35.85054 -7.39918 34984 ft 348 kts 225°
2026-05-08 11:53 35.81313 -7.43715 34987 ft 349 kts 224°
2026-05-08 11:54 35.77545 -7.47480 34982 ft 349 kts 224°
2026-05-08 11:54 35.73769 -7.51232 34984 ft 349 kts 224°
2026-05-08 11:55 35.69999 -7.54981 34982 ft 349 kts 224°
2026-05-08 11:55 35.66229 -7.58733 34983 ft 348 kts 224°
2026-05-08 11:56 35.62462 -7.62481 35001 ft 348 kts 224°
2026-05-08 11:56 35.58699 -7.66221 34996 ft 348 kts 224°
2026-05-08 11:57 35.54939 -7.69951 34993 ft 347 kts 224°
2026-05-08 11:57 35.51179 -7.73674 34990 ft 347 kts 224°
2026-05-08 11:58 35.47417 -7.77386 34959 ft 347 kts 224°
2026-05-08 11:58 35.43661 -7.81099 34965 ft 347 kts 224°
2026-05-08 11:59 35.38036 -7.86678 34973 ft 347 kts 224°
2026-05-08 11:59 35.34307 -7.90418 34974 ft 346 kts 224°
2026-05-08 12:00 35.30574 -7.94151 34976 ft 346 kts 224°
2026-05-08 12:00 35.26843 -7.97879 34978 ft 346 kts 224°
2026-05-08 12:01 35.23112 -8.01598 34934 ft 346 kts 224°
2026-05-08 12:01 35.19372 -8.05315 34946 ft 346 kts 224°
2026-05-08 12:02 35.15656 -8.09008 34948 ft 347 kts 224°
2026-05-08 12:02 35.11913 -8.12725 34963 ft 347 kts 224°
2026-05-08 12:03 35.08160 -8.16436 34972 ft 347 kts 224°
2026-05-08 12:03 35.04412 -8.20152 34965 ft 347 kts 224°
2026-05-08 12:04 35.00663 -8.23867 34976 ft 347 kts 224°
2026-05-08 12:04 34.96913 -8.27572 34967 ft 347 kts 224°
2026-05-08 12:05 34.93156 -8.31278 34946 ft 347 kts 224°
2026-05-08 12:05 34.89395 -8.34984 34966 ft 348 kts 224°
2026-05-08 12:06 34.85633 -8.38691 34973 ft 348 kts 224°
2026-05-08 12:06 34.81866 -8.42393 34975 ft 348 kts 224°
2026-05-08 12:07 34.78101 -8.46093 34971 ft 348 kts 224°
2026-05-08 12:07 34.74334 -8.49789 34972 ft 348 kts 224°
2026-05-08 12:08 34.70561 -8.53476 34978 ft 348 kts 224°
2026-05-08 12:08 34.66790 -8.57166 34946 ft 348 kts 224°
2026-05-08 12:09 34.63010 -8.60855 34953 ft 349 kts 224°
2026-05-08 12:09 34.59226 -8.64545 34959 ft 349 kts 224°
2026-05-08 12:10 34.55443 -8.68240 34967 ft 349 kts 224°
2026-05-08 12:10 34.51654 -8.71930 34987 ft 349 kts 223°
2026-05-08 12:11 34.47860 -8.75612 34983 ft 349 kts 223°
2026-05-08 12:11 34.44071 -8.79287 34978 ft 349 kts 223°
2026-05-08 12:12 34.40274 -8.82948 34943 ft 349 kts 223°
2026-05-08 12:12 34.36472 -8.86605 34947 ft 349 kts 223°
2026-05-08 12:13 34.32661 -8.90263 34953 ft 350 kts 223°
2026-05-08 12:13 34.28840 -8.93924 34963 ft 350 kts 223°
2026-05-08 12:14 34.25020 -8.97587 34967 ft 351 kts 223°
2026-05-08 12:14 34.21195 -9.01247 34970 ft 351 kts 223°
2026-05-08 12:15 34.17370 -9.04905 34975 ft 351 kts 223°
2026-05-08 12:15 34.13547 -9.08565 34916 ft 351 kts 223°
2026-05-08 12:16 34.10364 -9.11603 34945 ft 352 kts 223°
2026-05-08 12:16 34.06517 -9.15259 34951 ft 352 kts 223°
2026-05-08 12:17 34.02664 -9.18921 34960 ft 353 kts 223°
2026-05-08 12:17 33.98814 -9.22590 34964 ft 353 kts 223°
2026-05-08 12:18 33.94956 -9.26250 34966 ft 353 kts 223°
2026-05-08 12:18 33.91097 -9.29913 34968 ft 353 kts 223°
2026-05-08 12:19 33.87234 -9.33572 34970 ft 353 kts 223°
2026-05-08 12:19 33.83369 -9.37230 34932 ft 354 kts 223°
2026-05-08 12:20 33.79491 -9.40891 34939 ft 355 kts 223°
2026-05-08 12:20 33.75596 -9.44557 34947 ft 356 kts 223°
2026-05-08 12:21 33.71697 -9.48235 34976 ft 356 kts 223°
2026-05-08 12:21 33.67802 -9.51910 34977 ft 356 kts 222°
2026-05-08 12:22 33.63899 -9.55576 34974 ft 356 kts 222°
2026-05-08 12:22 33.59995 -9.59236 34976 ft 356 kts 222°
2026-05-08 12:23 33.56096 -9.62897 34942 ft 356 kts 222°
2026-05-08 12:23 33.52190 -9.66566 34948 ft 357 kts 222°
2026-05-08 12:24 33.48273 -9.70237 34958 ft 358 kts 222°
2026-05-08 12:24 33.44350 -9.73906 34964 ft 358 kts 222°
2026-05-08 12:25 33.40420 -9.77570 34972 ft 358 kts 222°
2026-05-08 12:25 33.36487 -9.81235 34981 ft 358 kts 222°
2026-05-08 12:26 33.32553 -9.84894 34983 ft 358 kts 222°
2026-05-08 12:26 33.28616 -9.88553 34951 ft 358 kts 222°
2026-05-08 12:27 33.24705 -9.92192 34954 ft 359 kts 222°
2026-05-08 12:27 33.20761 -9.95859 34966 ft 360 kts 222°
2026-05-08 12:28 33.16803 -9.99521 34963 ft 360 kts 222°
2026-05-08 12:28 33.12846 -10.03188 34967 ft 360 kts 222°
2026-05-08 12:29 33.08884 -10.06850 34969 ft 360 kts 222°
2026-05-08 12:29 33.04926 -10.10516 34975 ft 360 kts 222°
2026-05-08 12:30 33.00963 -10.14178 34980 ft 360 kts 221°
2026-05-08 12:30 32.96990 -10.17828 34981 ft 360 kts 221°
2026-05-08 12:31 32.93019 -10.21474 34996 ft 361 kts 221°
2026-05-08 12:31 32.89049 -10.25121 34991 ft 361 kts 221°
2026-05-08 12:32 32.85080 -10.28767 34987 ft 360 kts 222°
2026-05-08 12:32 32.81109 -10.32408 34988 ft 360 kts 221°
2026-05-08 12:33 32.77136 -10.36042 34986 ft 360 kts 221°
2026-05-08 12:33 32.73163 -10.39677 34982 ft 360 kts 221°
2026-05-08 12:34 32.69186 -10.43312 34945 ft 361 kts 221°
2026-05-08 12:34 32.65197 -10.46949 34952 ft 362 kts 221°
2026-05-08 12:35 32.61194 -10.50587 34963 ft 363 kts 221°
2026-05-08 12:35 32.57188 -10.54232 34977 ft 363 kts 221°
2026-05-08 12:36 32.53206 -10.57851 34999 ft 363 kts 221°
2026-05-08 12:36 32.49195 -10.61498 34997 ft 363 kts 221°
2026-05-08 12:37 32.45182 -10.65136 34995 ft 363 kts 221°
2026-05-08 12:37 32.41164 -10.68764 34938 ft 364 kts 221°
2026-05-08 12:38 32.37129 -10.72402 34949 ft 365 kts 221°
2026-05-08 12:38 32.33086 -10.76051 34958 ft 366 kts 221°
2026-05-08 12:39 32.29029 -10.79708 34968 ft 367 kts 221°
2026-05-08 12:39 32.24973 -10.83368 34977 ft 367 kts 221°
2026-05-08 12:40 32.20911 -10.87030 34981 ft 367 kts 221°
2026-05-08 12:40 32.16847 -10.90689 34984 ft 367 kts 221°
2026-05-08 12:41 32.12779 -10.94342 34966 ft 368 kts 221°
2026-05-08 12:41 32.08699 -10.97999 34971 ft 369 kts 221°
2026-05-08 12:42 32.04640 -11.01640 34980 ft 369 kts 221°
2026-05-08 12:42 32.00548 -11.05305 34988 ft 370 kts 221°
2026-05-08 12:43 31.96448 -11.08970 34991 ft 370 kts 221°
2026-05-08 12:43 31.92349 -11.12635 34992 ft 370 kts 221°
2026-05-08 12:44 31.88249 -11.16299 34996 ft 370 kts 221°
2026-05-08 12:44 31.84153 -11.19963 34953 ft 370 kts 222°
2026-05-08 12:45 31.80046 -11.23633 34961 ft 371 kts 221°
2026-05-08 12:45 31.75919 -11.27296 34971 ft 372 kts 221°
2026-05-08 12:46 31.71789 -11.30970 34996 ft 372 kts 221°
2026-05-08 12:46 31.67666 -11.34653 34998 ft 373 kts 222°
2026-05-08 12:47 31.63535 -11.38334 34999 ft 373 kts 222°
2026-05-08 12:47 31.59403 -11.42005 35002 ft 373 kts 222°
2026-05-08 12:48 31.55271 -11.45672 34960 ft 373 kts 222°
2026-05-08 12:48 31.51138 -11.49348 34965 ft 373 kts 222°
2026-05-08 12:49 31.46994 -11.53031 34975 ft 374 kts 222°
2026-05-08 12:49 31.42838 -11.56709 34986 ft 375 kts 222°
2026-05-08 12:50 31.38701 -11.60360 34992 ft 375 kts 222°
2026-05-08 12:50 31.34537 -11.64040 34997 ft 375 kts 222°
2026-05-08 12:51 31.28291 -11.69555 35004 ft 375 kts 222°
2026-05-08 12:52 31.24126 -11.73233 34954 ft 375 kts 222°
2026-05-08 12:52 31.17853 -11.78755 34968 ft 377 kts 221°
2026-05-08 12:53 31.13649 -11.82440 34979 ft 378 kts 222°
2026-05-08 12:53 31.09444 -11.86128 34987 ft 378 kts 221°
2026-05-08 12:54 31.05236 -11.89817 34994 ft 378 kts 222°
2026-05-08 12:54 31.01024 -11.93508 34999 ft 379 kts 221°
2026-05-08 12:55 30.96806 -11.97185 35004 ft 379 kts 221°
2026-05-08 12:55 30.92594 -12.00871 34973 ft 379 kts 222°
2026-05-08 12:56 30.88367 -12.04561 34988 ft 380 kts 222°
2026-05-08 12:56 30.84134 -12.08257 34996 ft 381 kts 222°
2026-05-08 12:57 30.79891 -12.11955 35008 ft 381 kts 222°
2026-05-08 12:57 30.75644 -12.15644 35006 ft 381 kts 222°
2026-05-08 12:58 30.71394 -12.19336 35012 ft 381 kts 222°
2026-05-08 12:58 30.67145 -12.23022 35006 ft 381 kts 222°
2026-05-08 12:59 30.62920 -12.26681 34966 ft 382 kts 222°
2026-05-08 12:59 30.58654 -12.30371 34981 ft 383 kts 222°
2026-05-08 13:00 30.54380 -12.34063 34991 ft 383 kts 222°
2026-05-08 13:00 30.50078 -12.37782 34994 ft 383 kts 222°
2026-05-08 13:01 30.45820 -12.41442 35010 ft 384 kts 222°
2026-05-08 13:01 30.41526 -12.45121 35009 ft 384 kts 222°
2026-05-08 13:02 30.37239 -12.48810 35011 ft 384 kts 222°
2026-05-08 13:02 30.32947 -12.52495 34976 ft 384 kts 222°
2026-05-08 13:03 30.28639 -12.56179 34985 ft 386 kts 222°
2026-05-08 13:03 30.24325 -12.59873 34991 ft 386 kts 222°
2026-05-08 13:04 30.19997 -12.63561 34994 ft 387 kts 222°
2026-05-08 13:04 30.15664 -12.67243 35000 ft 387 kts 222°
2026-05-08 13:05 30.11329 -12.70928 35007 ft 387 kts 222°
2026-05-08 13:05 30.07730 -12.73995 35006 ft 387 kts 222°
2026-05-08 13:06 30.03414 -12.77701 35020 ft 386 kts 223°
2026-05-08 13:06 29.99115 -12.81398 35019 ft 385 kts 222°
2026-05-08 13:07 29.94793 -12.85066 35019 ft 386 kts 222°
2026-05-08 13:07 29.90477 -12.88750 35017 ft 386 kts 223°
2026-05-08 13:08 29.86161 -12.92440 35017 ft 386 kts 222°
2026-05-08 13:08 29.81834 -12.96118 35017 ft 387 kts 222°
2026-05-08 13:09 29.77507 -12.99793 35015 ft 387 kts 222°
2026-05-08 13:09 29.73172 -13.03469 34980 ft 387 kts 222°
2026-05-08 13:10 29.68831 -13.07145 34985 ft 388 kts 222°
2026-05-08 13:10 29.64479 -13.10826 34992 ft 389 kts 222°
2026-05-08 13:11 29.60119 -13.14513 35014 ft 389 kts 223°
2026-05-08 13:11 29.55758 -13.18201 35013 ft 389 kts 223°
2026-05-08 13:12 29.51389 -13.21889 35018 ft 390 kts 223°
2026-05-08 13:12 29.47018 -13.25568 35022 ft 390 kts 222°
2026-05-08 13:13 29.42645 -13.29248 34988 ft 390 kts 223°
2026-05-08 13:13 29.38294 -13.32902 34993 ft 391 kts 223°
2026-05-08 13:14 29.33906 -13.36588 35003 ft 391 kts 222°
2026-05-08 13:14 29.29515 -13.40276 35008 ft 391 kts 223°
2026-05-08 13:15 29.25118 -13.43961 35017 ft 392 kts 222°
2026-05-08 13:15 29.20714 -13.47640 35017 ft 392 kts 222°
2026-05-08 13:16 29.16379 -13.51395 35018 ft 387 kts 229°
2026-05-08 13:16 29.12693 -13.55826 34979 ft 384 kts 232°
2026-05-08 13:17 29.09026 -13.60278 34990 ft 385 kts 232°
2026-05-08 13:17 29.05355 -13.64733 34997 ft 385 kts 232°
2026-05-08 13:18 29.01686 -13.69191 35004 ft 385 kts 232°
2026-05-08 13:18 28.98013 -13.73649 35010 ft 385 kts 232°
2026-05-08 13:19 28.94331 -13.78095 35015 ft 385 kts 232°
2026-05-08 13:19 28.90650 -13.82541 35021 ft 385 kts 232°
2026-05-08 13:20 28.86973 -13.86988 35027 ft 385 kts 232°
2026-05-08 13:20 28.83293 -13.91429 35028 ft 385 kts 232°
2026-05-08 13:21 28.79609 -13.95868 34924 ft 386 kts 232°
2026-05-08 13:21 28.77765 -13.98090 34544 ft 386 kts 232°
2026-05-08 13:21 28.75917 -14.00317 33807 ft 389 kts 232°
2026-05-08 13:22 28.74056 -14.02556 33189 ft 387 kts 232°
2026-05-08 13:22 28.72216 -14.04763 32781 ft 381 kts 232°
2026-05-08 13:22 28.70400 -14.06938 32330 ft 377 kts 232°
2026-05-08 13:22 28.68604 -14.09089 31887 ft 374 kts 232°
2026-05-08 13:23 28.66796 -14.11265 31443 ft 382 kts 232°
2026-05-08 13:23 28.64963 -14.13471 31008 ft 384 kts 231°
2026-05-08 13:23 28.63126 -14.15676 30584 ft 383 kts 231°
2026-05-08 13:23 28.61296 -14.17869 30139 ft 381 kts 231°
2026-05-08 13:24 28.59476 -14.20048 29602 ft 378 kts 231°
2026-05-08 13:24 28.57668 -14.22207 29067 ft 375 kts 231°
2026-05-08 13:24 28.55872 -14.24347 28534 ft 372 kts 231°
2026-05-08 13:24 28.54094 -14.26470 28013 ft 369 kts 231°
2026-05-08 13:25 28.52332 -14.28575 27500 ft 366 kts 231°
2026-05-08 13:25 28.50588 -14.30659 27022 ft 363 kts 231°
2026-05-08 13:25 28.48878 -14.32700 26585 ft 360 kts 231°
2026-05-08 13:25 28.47134 -14.34782 26109 ft 358 kts 231°
2026-05-08 13:26 28.45422 -14.36827 25675 ft 356 kts 230°
2026-05-08 13:26 28.43718 -14.38859 25249 ft 354 kts 230°
2026-05-08 13:26 28.42023 -14.40876 24834 ft 352 kts 230°
2026-05-08 13:26 28.40339 -14.42877 24423 ft 349 kts 230°
2026-05-08 13:27 28.38666 -14.44866 24015 ft 347 kts 230°
2026-05-08 13:27 28.37026 -14.46815 23618 ft 345 kts 230°
2026-05-08 13:27 28.35375 -14.48779 23151 ft 343 kts 230°
2026-05-08 13:27 28.33733 -14.50729 22675 ft 341 kts 230°
2026-05-08 13:28 28.32100 -14.52670 22208 ft 339 kts 230°
2026-05-08 13:28 28.30472 -14.54605 21754 ft 338 kts 230°
2026-05-08 13:28 28.28853 -14.56531 21303 ft 336 kts 230°
2026-05-08 13:28 28.27240 -14.58448 20867 ft 335 kts 230°
2026-05-08 13:29 28.25631 -14.60358 20431 ft 334 kts 230°
2026-05-08 13:29 28.24031 -14.62257 19997 ft 333 kts 230°
2026-05-08 13:29 28.22432 -14.64150 19575 ft 332 kts 230°
2026-05-08 13:29 28.20842 -14.66034 19154 ft 331 kts 230°
2026-05-08 13:30 28.19254 -14.67916 18740 ft 330 kts 229°
2026-05-08 13:30 28.17669 -14.69786 18339 ft 329 kts 229°
2026-05-08 13:30 28.16088 -14.71650 17818 ft 327 kts 229°
2026-05-08 13:30 28.14512 -14.73507 17270 ft 326 kts 229°
2026-05-08 13:31 28.12940 -14.75359 16767 ft 326 kts 229°
2026-05-08 13:31 28.11370 -14.77206 16269 ft 325 kts 229°
2026-05-08 13:31 28.09803 -14.79049 15780 ft 324 kts 229°
2026-05-08 13:31 28.08252 -14.80872 15283 ft 316 kts 229°
2026-05-08 13:32 28.06729 -14.82663 14812 ft 317 kts 229°
2026-05-08 13:32 28.05203 -14.84459 14342 ft 316 kts 229°
2026-05-08 13:32 28.03677 -14.86254 13878 ft 316 kts 229°
2026-05-08 13:32 28.02153 -14.88047 13368 ft 316 kts 229°
2026-05-08 13:33 28.00631 -14.89838 12858 ft 316 kts 228°
2026-05-08 13:33 27.99111 -14.91621 12348 ft 311 kts 228°
2026-05-08 13:33 27.97818 -14.93509 11840 ft 298 kts 244°
2026-05-08 13:33 27.97183 -14.95676 11382 ft 286 kts 262°
2026-05-08 13:34 27.97224 -14.97878 10951 ft 277 kts 280°
2026-05-08 13:34 27.97895 -14.99894 10522 ft 273 kts 298°
2026-05-08 13:34 27.99107 -15.01534 10093 ft 273 kts 316°
2026-05-08 13:34 28.00721 -15.02633 9925 ft 271 kts 331°
2026-05-08 13:35 28.02417 -15.03475 9790 ft 261 kts 330°
2026-05-08 13:35 28.04046 -15.04290 9437 ft 253 kts 330°
2026-05-08 13:35 28.05643 -15.05095 8993 ft 250 kts 330°
2026-05-08 13:35 28.07225 -15.05892 8591 ft 248 kts 330°
2026-05-08 13:36 28.08793 -15.06681 8053 ft 249 kts 331°
2026-05-08 13:36 28.10352 -15.07545 7489 ft 247 kts 322°
2026-05-08 13:36 28.11618 -15.08791 7072 ft 237 kts 305°
2026-05-08 13:36 28.12496 -15.10339 6569 ft 231 kts 290°
2026-05-08 13:37 28.13086 -15.12022 6070 ft 229 kts 288°
2026-05-08 13:37 28.13665 -15.13692 5589 ft 227 kts 289°
2026-05-08 13:37 28.14234 -15.15348 5129 ft 224 kts 286°
2026-05-08 13:37 28.14527 -15.17059 4665 ft 220 kts 271°
2026-05-08 13:38 28.14402 -15.18766 4315 ft 213 kts 256°
2026-05-08 13:38 28.14027 -15.20309 4262 ft 196 kts 255°
2026-05-08 13:38 28.13675 -15.21781 4216 ft 192 kts 255°
2026-05-08 13:38 28.13330 -15.23237 4165 ft 192 kts 255°
2026-05-08 13:39 28.12983 -15.24696 4095 ft 191 kts 255°
2026-05-08 13:39 28.12636 -15.26152 4016 ft 192 kts 255°
2026-05-08 13:39 28.12286 -15.27613 3916 ft 192 kts 255°
2026-05-08 13:39 28.11911 -15.29068 3772 ft 194 kts 248°
2026-05-08 13:40 28.11172 -15.30344 3495 ft 195 kts 225°
2026-05-08 13:40 28.10045 -15.31197 3252 ft 197 kts 204°
2026-05-08 13:40 28.08762 -15.31765 2986 ft 198 kts 203°
2026-05-08 13:40 28.07477 -15.32333 2723 ft 198 kts 203°
2026-05-08 13:41 28.06194 -15.32901 2455 ft 198 kts 202°
2026-05-08 13:41 28.04918 -15.33466 2213 ft 195 kts 202°
2026-05-08 13:41 28.03674 -15.34017 1939 ft 190 kts 201°
2026-05-08 13:41 28.02477 -15.34547 1682 ft 179 kts 202°
2026-05-08 13:42 28.01374 -15.35036 1470 ft 164 kts 201°
2026-05-08 13:42 28.00366 -15.35482 1253 ft 150 kts 201°
2026-05-08 13:42 27.99415 -15.35903 1062 ft 144 kts 201°
2026-05-08 13:42 27.98490 -15.36313 885 ft 143 kts 200°
2026-05-08 13:43 27.97553 -15.36728 702 ft 147 kts 200°
2026-05-08 13:43 27.96593 -15.37150 516 ft 149 kts 199°
2026-05-08 13:43 27.95614 -15.37581 310 ft 152 kts 202°
2026-05-08 13:43 27.94620 -15.38032 126 ft 155 kts 201°
2026-05-08 13:44 27.93646 -15.38460 57 ft 137 kts 200°
2026-05-08 13:44 27.93020 -15.38728 54 ft 68 kts 201°
2026-05-08 13:44 27.92626 -15.38905 64 ft 58 kts 201°
2026-05-08 13:44 27.92268 -15.39064 83 ft 47 kts 201°
2026-05-08 13:45 27.91997 -15.39189 87 ft 21 kts 200°
2026-05-08 13:45 27.91944 -15.39279 90 ft 15 kts 317°
2026-05-08 13:45 27.92038 -15.39300 92 ft 13 kts 354°
2026-05-08 13:45 27.92124 -15.39310 95 ft 12 kts 354°
2026-05-08 13:46 27.92201 -15.39294 100 ft 14 kts 19°
2026-05-08 13:46 27.92324 -15.39239 99 ft 22 kts 22°
2026-05-08 13:46 27.92478 -15.39172 96 ft 26 kts 21°
2026-05-08 13:46 27.92648 -15.39096 91 ft 26 kts 21°
2026-05-08 13:47 27.92824 -15.39018 86 ft 28 kts 20°
2026-05-08 13:47 27.92973 -15.38955 81 ft 24 kts 21°
2026-05-08 13:47 27.93116 -15.38892 72 ft 22 kts 25°
2026-05-08 13:47 27.93262 -15.38818 74 ft 24 kts 21°
2026-05-08 13:48 27.93401 -15.38762 71 ft 9 kts 348°
2026-05-08 13:48 27.93430 -15.38816 82 ft 8 kts 290°
2026-05-08 13:48 27.93454 -15.38865 86 ft 7 kts 315°
2026-05-08 13:48 27.93514 -15.38870 83 ft 10 kts 13°
2026-05-08 13:49 27.93587 -15.38841 85 ft 12 kts 20°
2026-05-08 13:49 27.93677 -15.38800 84 ft 15 kts 21°
2026-05-08 13:49 27.93783 -15.38753 87 ft 14 kts 21°
2026-05-08 13:49 27.93838 -15.38763 85 ft 9 kts 294°
2026-05-08 13:50 27.93850 -15.38799 84 ft 2 kts 291°
2026-05-08 13:50 27.93856 -15.38817 88 ft 3 kts 291°
2026-05-08 13:50 27.93857 -15.38819 88 ft 0 kts 291°